Location: Linz
(48.3300°N, 14.3000°E)
Time: 07:24:01
(UTC+01:00)

OTV 5 (USA 277) - Visible Passes

Search period start: 24 February 2018 00:00
Search period end: 06 March 2018 00:00
Orbit: 404 x 417 km, 43.0° (Epoch: 07 September)

Date Brightness Start Highest point End Pass type
(mag) Time Alt. Az. Time Alt. Az. Time Alt. Az.
24 Feb ? 05:03:42 17° S 05:04:28 19° SSE 05:06:52 10° ESE visible
25 Feb ? 04:15:03 12° SE 04:15:03 12° SE 04:15:32 10° ESE visible
25 Feb ? 05:47:48 13° SW 05:50:18 30° S 05:53:14 10° ESE visible
26 Feb ? 04:59:06 26° S 04:59:21 27° SSE 05:02:12 10° ESE visible
27 Feb ? 04:10:22 14° ESE 04:10:22 14° ESE 04:11:05 10° ESE visible
27 Feb ? 05:43:07 16° WSW 05:45:16 32° S 05:48:15 10° ESE visible
28 Feb ? 04:54:23 32° S 04:54:23 32° S 04:57:17 10° ESE visible
01 Mar ? 04:05:38 14° ESE 04:05:38 14° ESE 04:06:17 10° ESE visible
01 Mar ? 05:38:23 17° WSW 05:40:14 27° S 05:43:05 10° SE visible
02 Mar ? 04:49:40 29° S 04:49:40 29° S 04:52:13 10° ESE visible
03 Mar ? 04:00:59 12° ESE 04:00:59 12° ESE 04:01:18 10° ESE visible
03 Mar ? 05:33:44 15° SW 05:35:07 20° SSW 05:37:35 10° SSE visible
04 Mar ? 04:45:06 21° S 04:45:06 21° S 04:46:55 10° SE visible
05 Mar ? 05:29:19 11° SW 05:29:55 12° SSW 05:31:14 10° S visible
